COSMOS 2251 DEB

Satellite information

Favourite Embed

Satellite Type and Status

DEBRISIN ORBIT

Key statistics

Satellite COSMOS 2251 DEB at a glance.

Uptime

11817

Days in orbit

Revolutions

≈ 14.5

Per day

Orbit

LEO

Low Earth Orbit

Inclination

74.0

Latest

Satellite identification and parameters

Extended collection of information and parameters for COSMOS 2251 DEB.

Object identification

Identified? True

Debris? True

Object name: COSMOS 2251 DEB

International designator: 1993-036ATW

Object number (NORAD): 35883

Object ID (CCSDS): 35883

Country: COMMONWEALTH OF INDEPENDENT STATES (CIS)

Current information (Y/N): Y

RCS size: SMALL

Orbital parameters

Period: 99.283 minutes

Inclination: 74.0214 deg

SMA: 7102.461 km

Apoapsis: 784.358 km

Periapsis: 664.293 km

RAAN: 168.4214 deg

Eccentricy: 0.00845233

Argument of periapsis: 309.1692 deg

Mean anomaly: 229.8436 deg

Mean motion: 14.50405758 rev/day

Mean motion (dot): 0.00001565 rev/day2

B* drag term: 0.0003900566 1/REarth

Two-line elements (TLE)

Creation date: Oct. 21, 2025, 6:24 p.m.

Reference frame: TEME

Reference center: EARTH

Epoch: Oct. 21, 2025, 10:16 a.m. UTC

TLE line 0: 0 COSMOS 2251 DEB

TLE line 1: 1 35883U 93036ATW 25294.42780420 .00001565 00000-0 39006-3 0 9995

TLE line 2: 2 35883 74.0214 168.4214 0084523 309.1692 229.8436 14.50405758616270

Live tracking on map

Real-time ground track for satellite COSMOS 2251 DEB.

In-orbit conjunctions

A list of the most updated potential collisions computed for object COSMOS 2251 DEB.

Target Orbit TCA Probability of collision Miss distance Type
COSMOS 1420 LEO 2025-08-26 17:06:09 0.003524044 406.0 (m) PAYLOAD
CZ-4C R/B SSO 2025-05-14 23:38:47 0.0001095242 422.0 (m) ROCKET BODY
NOAA 16 DEB SSO 2025-01-08 10:06:04 0.0001381042 87.0 (m) DEBRIS

Associated space launch

Military communications satellite. Destroyed in a collision with Iridium 33.

COSMOS 2251 DEB was lifted into orbit during the mission ‘Kosmos-3M | Strela-2M 51’, on board a Kosmos-3M space rocket.

The launch took place on June 16, 1993, 4:17 a.m. from 132/1 (132L).

For more information about the launch, click the button.

Launch to space Kosmos-3M | Strela-2M 51
Kosmos-3M | Strela-2M 51

Agency: N/A

Status: Launch Successful

Launch date: June 16, 1993, 4:17 a.m. UTC

Rocket: Kosmos-3M

Launch pad: 132/1 (132L)

Location: Plesetsk Cosmodrome, Russian Federation

...

Latest news about this satellite

There are no fresh news available about this satellite. Check back as we update our databases every day.


Newsletter sign-up

Weekly statistics, charts and insights to help you stay on top of the space industry.